Location: Unspecified
(0.0000°N, 0.0000°E)
Time: 00:01:24
(UTC+00:00)

deb S5M - Pass Details

Date: 25 June 2024
Orbit: 775 x 867 km, 82.5° (Epoch: 14 July)

Event Time Altitude Azimuth Distance (km) Brightness Sun altitude
Exits shadow 04:06:26 45° 320° (NW) 1,128 ? -26.5°
Drops below altitude 10° 04:10:33 10° 351° (N) 2,456 ? -25.6°
Sets 04:13:02 0° 355° (N) 3,401 ? -25.0°
